Weather History for PAAQ - July, 2013

Change the Weather History Date:

Sunday, July 21, 2013

  Actual Average Record
Temperature  
Mean Temperature 62 °F -  
Max Temperature 78 °F 66 °F 83 °F (1955)
Min Temperature 46 °F 48 °F 36 °F (1971)
Degree Days  
Heating Degree Days 4    
Growing Degree Days 12 (Base 50)    
Moisture  
Dew Point 47 °F    
Average Humidity 61    
Maximum Humidity 93    
Minimum Humidity 30    
Precipitation  
Precipitation 0.00 in - - ()
Sea Level Pressure  
Sea Level Pressure 29.99 in    
Wind  
Wind Speed 6 mph (North)    
Max Wind Speed 15 mph    
Max Gust Speed 22 mph    
Visibility 10 miles    
Events      
Averages and records for this station are not official NWS values.
T = Trace of Precipitation, MM = Missing Value Source: NWS Daily Summary

Daily Weather History Graph

Daily Weather History Graph

Search for Another Location

Airport or City:

Trip Planner

Search our weather history database for the weather conditions in past years. The results will help you decide how hot, cold, wet, or windy it might be!

Date:

Astronomy

Jul. 21, 2013 Rise Set
Actual Time 4:58 AM AKDT 11:04 PM AKDT
Civil Twilight 3:34 AM AKDT 12:27 AM AKDT
Nautical Twilight Sun does not set Sun does not set
Astronomical Twilight Sun does not set Sun does not set
Moon 9:48 PM AKDT (7/21) 4:07 AM AKDT (7/21)
Length of Visible Light 20h 53m
Length of Day
18h 06m
Waxing Gibbous, 99% of the Moon is Illuminated
Jul 21
Waxing Gibbous
Jul 22
Full
Jul 29
Last Quarter
Aug 6
New
Aug 14
First Quarter

Hourly Weather History & Observations

Time (AKDT) Temp. Dew Point Humidity Pressure Visibility Wind Dir Wind Speed Gust Speed Precip Events Conditions
12:53 AM 55.0 °F 51.1 °F 86% 30.06 in 10.0 mi North 4.6 mph - N/A   Clear
1:53 AM 54.0 °F 50.0 °F 86% 30.06 in 10.0 mi North 6.9 mph - N/A   Scattered Clouds
2:53 AM 52.0 °F 48.9 °F 89% 30.06 in 10.0 mi North 4.6 mph - N/A   Clear
3:53 AM 52.0 °F 48.9 °F 89% 30.05 in 10.0 mi North 6.9 mph - N/A   Clear
4:53 AM 50.0 °F 46.9 °F 89% 30.05 in 10.0 mi NNE 5.8 mph - N/A   Clear
5:53 AM 46.9 °F 45.0 °F 93% 30.04 in 10.0 mi Calm Calm - N/A   Clear
6:53 AM 50.0 °F 46.9 °F 89% 30.04 in 10.0 mi Calm Calm - N/A   Clear
7:53 AM 53.1 °F 48.0 °F 83% 30.03 in 10.0 mi Calm Calm - N/A   Clear
8:53 AM 54.0 °F 48.9 °F 83% 30.01 in 10.0 mi SE 3.5 mph - N/A   Clear
9:53 AM 59.0 °F 51.1 °F 75% 30.01 in 10.0 mi Calm Calm - N/A   Clear
10:53 AM 62.1 °F 50.0 °F 65% 30.00 in 10.0 mi ESE 4.6 mph - N/A   Clear
11:53 AM 68.0 °F 52.0 °F 56% 29.98 in 10.0 mi Variable 5.8 mph - N/A   Clear
12:53 PM 68.0 °F 51.1 °F 55% 29.98 in 10.0 mi SW 9.2 mph - N/A   Clear
1:53 PM 71.1 °F 50.0 °F 47% 29.96 in 10.0 mi SW 6.9 mph - N/A   Clear
2:53 PM 75.0 °F 48.0 °F 38% 29.95 in 10.0 mi Variable 3.5 mph - N/A   Clear
3:53 PM 77.0 °F 45.0 °F 32% 29.94 in 10.0 mi Variable 5.8 mph - N/A   Scattered Clouds
4:53 PM 75.9 °F 45.0 °F 33% 29.93 in 10.0 mi NNW 9.2 mph - N/A   Scattered Clouds
5:53 PM 77.0 °F 44.1 °F 31% 29.92 in 10.0 mi North 10.4 mph - N/A   Scattered Clouds
6:53 PM 75.9 °F 42.1 °F 30% 29.91 in 10.0 mi NNW 8.1 mph - N/A   Clear
7:53 PM 75.9 °F 44.1 °F 32% 29.91 in 10.0 mi NNE 12.7 mph - N/A   Mostly Cloudy
8:53 PM 73.0 °F 48.0 °F 41% 29.92 in 10.0 mi SSE 3.5 mph - N/A   Mostly Cloudy
9:53 PM 70.0 °F 45.0 °F 41% 29.94 in 10.0 mi NNE 11.5 mph - N/A   Partly Cloudy
10:53 PM 66.9 °F 44.1 °F 44% 29.95 in 10.0 mi NNE 15.0 mph 21.9 mph N/A   Partly Cloudy
11:53 PM 66.0 °F 45.0 °F 47% 29.97 in 10.0 mi NNE 15.0 mph - N/A   Clear